Theta_e
313 313 312 311 310 309 309 308 308 308 308 308 307 308 307 308 307 308 308 308 308 308 309 309 309 309 309 310 309 309 310 308 305 305 307 309 307 306 306 306 306 303 302 303 302 305 306 307 307 305 307 307 308 310 307 312 315 312 316 316 314 316 314 316 318 315 314 315 313 313 313 314 317 315 308 308 310 310 311 312 310 310 309 308 307 307 308 310
314 314 313 312 311 311 310 309 308 308 308 308 307 307 307 308 307 307 308 308 308 308 309 309 309 309 309 309 307 309 310 306 305 306 310 310 309 307 306 307 307 304 302 302 303 305 307 310 307 308 312 308 307 309 309 310 310 314 318 313 313 316 315 315 319 316 311 313 315 314 314 313 317 315 308 310 317 314 311 310 309 309 310 308 305 305 307 307
314 314 313 313 312 311 311 310 310 309 309 308 308 308 308 307 307 307 307 308 308 308 308 308 309 308 309 308 306 308 307 305 308 311 311 312 310 308 307 308 308 305 302 303 305 305 307 309 305 309 312 309 310 310 310 310 309 316 315 312 315 316 315 314 317 316 311 311 313 313 312 313 316 312 309 312 315 314 312 310 309 311 311 311 309 305 304 305
315 314 314 313 313 312 312 311 311 311 310 309 309 309 308 307 307 307 307 308 308 308 308 308 308 308 308 307 306 305 304 307 312 311 310 310 309 308 308 309 307 303 302 304 307 307 307 307 305 309 309 308 312 309 312 314 311 313 311 312 317 313 312 314 316 316 314 310 311 316 311 313 317 312 311 312 311 311 310 309 308 310 311 311 314 309 302 305
316 315 315 314 314 314 313 312 311 311 311 310 309 310 309 308 308 308 307 308 308 308 308 308 308 308 308 306 304 304 305 309 309 310 309 309 309 308 309 308 305 302 303 305 308 308 308 307 307 312 310 308 310 310 316 317 311 312 309 311 316 310 309 314 316 314 315 312 313 317 313 312 313 312 315 312 310 310 309 311 310 310 313 313 315 313 309 313
317 316 316 315 315 315 315 314 313 312 311 310 310 310 310 310 309 308 308 308 308 308 307 308 308 308 308 305 304 305 306 305 308 308 308 309 308 308 307 305 303 302 304 307 307 307 309 309 308 312 311 308 311 312 315 314 309 311 313 313 316 311 309 314 317 317 316 313 315 317 312 313 312 313 318 314 311 310 309 314 314 312 313 309 309 314 319 323
318 317 317 316 316 316 315 315 314 313 312 311 310 311 311 311 310 310 308 308 308 308 307 308 307 308 308 305 304 307 307 307 307 307 309 308 307 306 304 303 303 303 306 307 306 309 312 311 309 312 312 307 310 312 314 314 310 311 315 315 316 312 310 312 314 317 317 314 317 316 310 312 315 313 315 313 311 310 310 312 314 315 311 306 310 317 320 321
319 318 318 317 317 317 316 316 315 315 314 312 312 311 310 311 311 310 309 308 308 307 307 307 307 308 307 305 304 308 310 308 304 306 308 307 305 304 302 303 304 305 307 306 306 311 312 311 310 309 309 307 309 311 313 313 312 313 315 315 317 316 317 317 315 317 318 316 314 311 311 313 314 313 313 314 311 310 310 310 312 313 312 311 315 317 316 318
319 319 318 318 318 317 317 317 316 316 315 314 313 312 311 310 310 311 310 309 308 307 307 307 307 307 307 305 305 306 308 307 304 307 307 305 304 302 303 303 304 306 308 307 307 308 308 311 311 307 308 310 308 310 312 312 313 315 314 315 317 317 319 318 318 318 318 318 313 311 314 313 312 312 312 313 311 311 312 312 311 310 311 311 310 311 312 315
317 318 318 318 318 318 318 317 317 317 316 316 315 314 312 311 310 311 310 310 309 308 307 307 307 307 305 305 306 304 306 307 306 307 306 304 303 302 304 303 305 306 307 308 306 306 308 310 309 307 308 309 306 308 313 312 311 313 314 316 316 316 316 315 318 318 315 316 315 314 314 314 311 310 311 313 315 315 316 316 312 309 311 309 307 307 308 310
313 315 316 317 318 318 318 318 318 317 317 317 316 315 314 312 311 311 311 311 310 308 308 307 307 306 303 304 310 306 305 306 307 307 305 303 302 303 304 304 305 305 307 308 307 306 307 307 305 305 306 307 306 307 312 313 310 312 314 315 318 318 315 315 317 315 310 312 315 313 311 313 311 310 312 313 317 318 318 320 317 314 312 308 307 306 305 307
311 311 312 314 315 317 317 318 318 317 318 317 317 317 315 314 312 311 311 311 311 310 308 307 307 306 304 305 309 306 302 304 306 305 305 303 303 304 303 304 305 305 307 309 308 307 307 306 304 305 306 305 307 306 310 312 311 312 312 312 317 318 315 315 317 315 309 312 316 312 311 314 313 314 315 311 313 313 312 317 319 318 315 310 308 307 306 305
311 311 311 311 311 313 314 316 317 317 317 317 318 317 316 315 313 312 312 311 311 311 309 308 307 304 304 308 307 303 302 303 304 304 305 304 303 304 304 305 305 305 307 308 308 307 308 307 305 307 306 306 309 305 307 312 312 311 311 313 314 314 315 313 313 314 310 313 315 312 311 318 318 317 314 311 311 310 312 313 313 313 313 310 309 308 307 305
310 310 310 311 311 310 311 312 315 317 317 317 317 317 317 315 314 313 312 312 311 311 310 308 307 304 303 307 304 301 302 302 303 304 304 304 304 305 305 305 305 305 307 309 309 307 308 307 305 306 306 308 310 303 308 317 316 312 309 314 313 311 318 315 311 314 312 312 313 312 311 317 320 320 316 312 310 310 314 314 311 311 310 309 309 308 308 307
308 308 308 310 310 311 310 310 311 313 316 317 317 317 317 315 314 313 312 312 312 311 311 308 307 305 303 304 301 301 303 302 304 303 303 304 303 305 305 305 305 306 307 308 309 307 307 307 306 308 307 307 308 306 313 321 321 318 310 316 317 312 319 321 314 315 315 313 309 310 314 317 314 317 317 314 312 312 315 315 312 311 310 309 308 307 307 307
307 307 307 307 308 310 311 310 310 310 312 315 317 317 316 316 315 313 313 313 312 312 310 308 307 304 304 305 301 302 304 303 304 303 303 304 303 305 305 305 306 306 307 306 308 307 307 308 308 310 311 310 310 311 313 313 318 318 311 314 319 314 317 318 315 312 315 314 311 311 316 318 313 316 317 314 316 317 317 316 313 310 311 309 308 307 307 307
306 306 306 306 306 307 309 310 311 310 309 311 314 316 316 316 315 314 313 312 311 311 309 307 304 302 304 304 303 305 305 304 304 304 304 303 304 305 305 307 307 306 306 306 306 307 307 307 306 309 313 314 313 311 309 309 313 314 311 313 317 314 314 317 317 312 310 313 315 313 312 314 312 313 315 315 318 318 315 314 311 310 309 307 308 307 307 308
306 305 305 305 305 306 307 308 310 311 310 309 311 315 316 316 315 313 311 309 307 306 306 305 302 305 310 304 305 307 304 304 304 304 304 303 304 304 306 309 308 307 307 307 306 306 307 307 308 312 312 312 311 308 308 311 312 315 317 317 318 317 313 316 316 312 311 312 314 315 312 312 311 310 311 312 316 314 310 310 309 308 308 307 308 307 308 308
305 304 303 303 304 304 305 306 308 309 311 309 310 314 316 314 312 310 307 306 306 306 310 307 302 310 314 306 305 305 303 304 304 303 304 304 304 306 307 307 308 310 309 308 307 307 308 309 310 312 310 310 311 308 308 310 311 318 323 320 320 321 315 316 317 312 312 314 314 314 312 312 311 310 309 309 313 313 309 309 308 308 308 308 308 307 307 307
304 303 303 303 302 303 303 304 306 308 310 310 310 313 315 314 313 311 306 304 307 309 313 311 305 309 310 306 306 305 304 305 303 304 304 304 306 306 307 306 308 311 310 311 311 307 308 309 309 310 309 309 310 309 309 310 311 314 317 317 316 317 314 315 315 311 308 311 316 314 311 311 309 309 308 307 311 312 310 308 308 308 308 308 308 307 306 307
303 302 302 302 302 302 302 303 304 306 309 310 311 313 315 316 317 315 309 307 306 305 309 310 306 308 307 305 305 304 306 305 304 305 303 304 306 307 309 309 310 310 309 313 312 307 307 309 308 308 309 310 313 314 311 311 311 311 313 314 313 313 313 311 310 311 309 308 314 315 311 310 309 308 308 308 310 310 309 309 308 308 308 307 307 306 305 305
302 301 301 301 301 300 301 302 303 306 309 310 311 312 312 313 314 312 310 313 310 305 307 307 305 306 304 304 303 303 306 306 306 306 304 305 307 308 309 310 311 311 309 310 309 309 310 309 308 308 310 313 316 316 312 311 311 311 312 311 312 312 313 314 311 311 310 310 315 317 312 310 309 308 308 308 309 309 308 309 309 308 308 308 307 306 305 304
301 300 300 300 299 298 300 301 303 307 309 310 311 311 311 312 312 310 309 312 312 308 307 307 307 307 305 305 303 302 303 304 306 307 305 306 307 309 310 308 310 310 309 309 307 310 311 310 310 309 310 311 312 313 312 310 310 311 311 310 311 311 312 315 313 310 310 311 313 314 310 308 308 308 309 310 309 309 310 310 311 309 307 307 307 306 305 305
300 300 299 300 299 299 299 300 305 307 306 308 311 311 311 311 311 310 308 310 313 311 308 308 308 309 309 307 304 303 304 304 305 305 305 307 307 308 310 309 309 308 308 308 308 309 308 310 311 310 311 311 311 313 312 312 312 310 310 310 310 311 311 313 314 311 312 310 307 309 310 310 313 311 311 316 313 312 314 314 313 311 308 307 307 307 305 305
300 299 299 299 299 299 298 300 306 304 302 307 310 311 311 310 309 308 308 311 315 311 307 307 307 308 308 305 304 304 305 304 305 305 305 306 306 307 308 308 308 309 308 307 309 308 307 310 312 312 312 310 310 312 313 313 312 310 310 310 310 312 312 311 311 310 314 317 308 307 311 313 319 315 314 320 317 315 318 315 313 312 310 309 310 309 306 305
298 298 298 297 298 298 298 302 304 302 303 307 309 310 310 309 309 308 309 313 316 314 311 310 311 311 308 304 303 306 307 307 305 304 305 306 306 307 308 307 307 308 308 308 308 307 308 310 312 315 313 311 311 311 312 312 311 311 311 311 311 311 311 311 310 309 317 322 310 308 314 313 314 313 314 319 315 313 314 312 311 309 309 310 312 312 308 307
297 297 296 296 297 298 299 300 301 301 305 307 308 309 308 309 308 307 311 315 316 318 316 310 310 311 307 304 303 308 313 310 305 304 305 306 306 307 307 307 307 307 308 308 307 307 310 310 310 312 312 313 312 310 311 310 311 313 310 309 311 311 311 311 310 311 315 315 309 310 315 313 311 312 313 315 314 314 313 314 314 311 309 310 311 311 309 309
296 296 296 296 297 297 298 299 300 301 303 305 306 307 308 309 307 307 314 317 317 321 317 307 305 306 305 304 303 308 312 308 308 308 304 303 306 307 307 307 308 309 309 307 306 309 313 313 312 310 311 311 311 312 312 309 311 314 307 306 310 311 311 311 310 310 311 310 310 313 312 311 313 315 315 313 314 316 315 318 318 314 315 314 312 311 309 307
295 296 296 297 296 294 296 298 299 299 300 302 303 306 307 306 306 309 314 317 319 323 317 307 305 304 304 303 302 306 307 306 310 308 303 304 305 307 308 309 310 310 309 308 306 307 310 312 312 310 310 311 313 314 310 309 312 309 305 307 309 310 311 312 312 311 312 311 313 315 312 311 314 316 316 313 314 318 316 317 317 314 316 314 311 311 309 307
295 295 297 298 295 294 296 296 297 298 300 301 303 305 306 305 307 312 314 316 317 319 315 309 307 305 304 304 303 305 305 306 308 305 305 307 306 306 307 308 310 309 308 308 307 307 307 306 307 310 312 312 313 310 306 310 311 306 309 313 311 312 312 313 314 311 311 313 313 315 313 311 313 315 317 316 317 321 319 319 318 315 318 315 310 310 310 309
295 295 296 296 294 294 296 296 297 298 298 301 304 304 304 306 309 313 315 316 316 317 315 310 307 305 306 307 307 305 305 307 307 306 307 307 306 308 307 307 311 310 309 309 308 308 308 307 308 311 311 311 312 310 306 307 306 307 317 317 313 316 314 313 314 310 311 313 312 313 311 310 313 315 318 318 316 317 318 319 319 317 319 320 315 310 308 307
295 294 293 293 292 294 296 298 299 298 297 301 303 303 305 307 309 313 314 315 317 317 315 312 308 307 306 308 309 306 305 308 308 307 308 307 306 308 307 307 310 310 310 310 308 309 309 309 311 311 308 310 313 313 308 305 305 309 316 315 313 317 314 312 314 313 313 311 308 308 309 309 312 313 315 315 312 314 316 315 316 316 317 322 322 312 307 306
294 292 291 292 292 295 297 298 299 299 299 301 302 302 306 309 310 312 312 313 316 315 312 311 311 310 307 308 310 307 306 309 308 307 309 308 307 307 307 307 309 310 313 312 309 310 310 310 310 309 308 310 310 310 310 308 307 308 312 314 312 313 312 309 311 313 313 310 306 306 310 311 313 314 312 311 310 312 313 312 314 314 315 321 321 311 306 306
292 291 291 291 293 297 297 296 300 302 300 301 302 302 305 308 309 311 312 313 314 313 311 309 309 309 307 309 311 308 307 309 309 308 309 308 308 308 308 308 308 310 312 312 311 311 313 313 312 309 310 311 308 308 311 311 308 307 310 314 311 312 314 310 311 314 314 315 309 304 309 315 321 321 315 311 314 316 314 312 311 309 310 314 313 309 308 307
290 290 290 291 294 297 295 295 299 302 300 300 302 303 305 307 308 310 313 312 311 311 310 308 308 309 309 309 312 310 308 309 309 309 309 309 309 309 309 308 307 309 310 310 311 311 311 314 313 309 309 309 308 310 313 312 309 308 311 312 311 315 315 310 313 315 313 314 312 308 311 318 322 319 312 310 313 315 314 312 311 309 308 308 310 311 310 305
289 290 291 292 295 296 294 295 299 301 300 301 302 303 305 305 306 309 310 307 308 309 309 309 310 310 310 311 313 312 309 310 310 310 310 309 309 310 311 309 307 308 309 309 312 312 311 313 311 308 308 309 309 311 312 311 310 308 309 310 310 314 316 312 311 311 309 311 312 313 314 316 316 314 311 314 315 314 314 314 313 311 308 309 310 310 308 304
290 291 291 294 295 294 294 298 301 300 300 300 302 303 304 304 306 307 304 302 305 307 307 309 310 311 312 313 314 314 311 311 311 311 311 310 310 311 312 312 309 307 308 309 312 314 313 313 311 308 308 308 307 310 311 310 309 309 311 311 308 310 316 315 312 312 313 312 312 315 315 314 315 315 316 317 314 314 315 313 312 310 309 311 310 306 305 303
291 291 293 295 295 294 297 300 301 299 299 300 302 302 303 304 305 302 300 301 304 305 306 307 309 311 311 311 313 313 311 312 312 311 312 312 312 312 311 313 312 308 308 308 311 314 314 312 310 308 308 306 305 308 311 309 307 309 311 310 309 311 314 314 313 313 314 313 313 317 315 312 313 315 318 318 317 316 315 312 311 310 311 312 310 306 304 302
291 292 296 296 293 294 298 300 300 299 300 300 301 302 302 303 302 300 299 301 303 304 305 306 307 308 308 309 310 311 309 311 312 312 312 312 314 313 310 311 312 309 308 307 309 312 313 313 311 307 305 307 307 309 311 309 306 307 307 306 308 311 313 314 314 314 315 312 312 316 314 312 314 315 316 320 323 321 319 319 314 311 310 310 309 308 304 303
291 292 295 294 292 294 297 299 300 299 300 301 300 302 302 301 301 300 300 301 302 303 304 305 304 304 306 307 306 308 309 309 309 310 312 313 314 314 311 309 311 311 308 307 308 309 311 314 313 307 304 307 309 309 310 310 308 307 307 307 307 308 311 314 313 315 317 314 315 316 312 313 320 318 314 315 319 318 321 327 322 312 309 308 307 307 305 303
291 292 294 291 291 295 297 299 300 299 300 301 299 299 299 300 300 299 300 301 301 302 302 303 303 303 305 305 304 306 306 306 308 309 312 312 312 314 311 307 307 309 309 309 308 308 310 313 313 309 306 308 310 308 307 309 309 308 308 309 308 307 310 312 311 313 315 313 316 317 312 314 321 318 311 312 317 316 316 323 328 320 310 307 306 305 305 304
291 291 292 291 291 295 297 298 298 298 299 298 296 296 297 298 299 299 300 299 298 300 301 302 302 303 304 303 301 302 301 303 307 309 310 311 311 312 307 300 300 304 309 311 310 309 311 312 312 311 310 309 307 304 302 305 306 307 307 308 309 309 309 311 312 313 312 311 313 314 312 313 316 315 315 317 321 320 312 314 324 326 313 306 306 304 303 303
290 290 291 290 291 294 297 297 296 295 296 295 294 294 296 298 299 298 298 297 297 299 301 301 301 301 301 299 298 298 298 300 303 304 303 304 305 306 302 298 298 300 305 308 309 309 310 310 310 311 311 308 305 302 300 300 303 306 308 307 308 309 309 311 312 313 313 313 312 311 312 312 311 314 319 318 318 318 312 309 315 320 314 307 305 305 304 302
289 289 289 290 291 294 295 295 294 293 293 293 293 293 294 297 298 295 295 296 296 298 299 299 300 299 299 297 296 297 297 298 299 298 298 299 301 302 300 298 298 299 301 304 305 306 308 310 311 312 313 311 308 307 304 302 302 306 309 307 306 307 308 310 310 310 310 313 313 312 312 312 313 316 318 318 318 318 316 310 308 313 317 313 307 305 303 301
289 288 289 290 291 294 294 293 292 292 292 292 291 292 293 295 295 293 295 295 295 296 296 297 298 298 297 295 295 296 296 296 296 296 297 297 298 300 299 297 297 298 299 301 303 303 306 310 312 312 313 314 313 313 311 307 304 305 307 308 306 306 308 309 310 309 309 312 313 313 313 313 317 320 318 318 320 318 316 315 309 309 313 314 309 305 303 301
290 289 290 290 291 293 293 292 291 291 292 291 291 292 292 292 292 293 295 296 294 293 294 295 297 296 294 294 294 294 294 295 295 295 296 297 297 298 297 296 297 298 299 301 302 303 305 310 311 311 312 313 313 313 310 308 306 306 307 307 305 306 308 308 309 310 310 311 311 311 313 313 315 318 318 318 318 315 314 317 317 315 314 312 307 303 302 301
290 290 290 290 291 291 291 291 291 290 291 292 291 291 292 291 291 292 295 295 293 291 292 295 295 293 292 293 294 293 293 294 294 295 296 297 297 296 296 295 297 299 298 299 301 302 303 305 308 309 311 311 311 312 310 308 308 307 307 307 306 305 306 308 309 310 310 311 311 311 312 312 311 312 314 315 315 313 311 313 315 315 314 311 305 304 303 302
289 290 290 290 290 290 290 289 289 289 290 291 291 292 292 291 291 291 292 292 291 290 292 294 293 291 291 293 293 293 293 293 293 294 296 296 295 295 295 295 297 299 297 296 299 301 302 302 304 307 309 310 310 311 311 310 309 307 307 307 307 306 306 307 309 309 310 311 311 312 312 313 311 310 311 311 311 311 309 309 310 310 310 309 307 308 308 305
289 289 290 289 289 289 289 288 289 290 289 290 291 292 291 291 291 291 290 290 289 289 291 292 291 291 291 291 292 293 293 293 294 294 295 294 293 294 295 295 297 298 296 294 296 300 303 302 303 306 307 308 309 309 310 310 310 309 308 307 306 306 306 306 307 308 309 310 310 311 312 312 310 309 310 309 309 309 308 309 310 309 309 309 308 309 310 307
290 289 290 289 288 289 288 288 289 290 289 288 290 291 291 291 291 290 289 289 289 289 291 291 290 291 291 291 292 292 292 293 293 293 293 292 292 293 294 295 295 295 295 294 296 300 303 302 302 305 306 307 308 309 309 309 309 309 309 308 307 305 305 306 307 307 308 308 309 309 309 309 308 308 309 308 308 308 308 308 309 308 308 309 307 307 308 307
289 289 289 289 288 288 289 289 289 288 288 289 290 290 291 290 290 289 288 289 289 290 290 290 290 290 290 291 291 291 292 292 291 291 291 291 291 292 293 294 294 294 294 295 296 299 301 302 302 304 305 306 307 308 308 308 308 308 308 308 308 307 306 305 305 306 307 307 308 308 308 307 308 309 310 308 308 308 307 308 307 308 308 308 307 306 306 306
289 289 289 289 288 288 289 289 288 287 288 290 290 289 289 288 289 288 288 289 290 289 290 290 290 290 290 290 290 291 292 291 290 289 290 290 291 291 292 293 293 294 294 294 296 297 299 301 302 303 304 305 306 308 308 309 309 308 308 308 307 307 307 306 305 304 305 306 306 307 307 307 309 310 309 308 308 307 306 307 307 308 308 307 307 305 305 305
Wind_Speed
11 11 12 12 13 13 13 14 14 14 15 15 16 17 17 17 17 17 17 18 19 20 20 21 22 22 22 21 21 22 24 25 27 21 12 15 14 12 12 8 7 6 7 6 4 5 4 3 4 2 4 3 2 0 1 2 2 2 3 2 3 4 4 6 8 7 5 3 4 4 4 7 5 3 1 1 2 4 5 6 5 6 9 10 9 7 6 2
11 11 11 11 12 12 13 13 13 14 15 15 16 16 17 17 17 17 17 18 18 19 20 20 21 22 22 21 21 21 24 27 24 20 19 18 12 13 14 12 9 6 6 6 6 8 7 3 3 4 4 2 1 0 0 0 2 2 3 2 5 6 6 6 8 6 4 4 4 3 2 6 7 3 2 3 6 3 6 8 4 8 14 13 14 15 13 7
12 12 11 11 11 11 12 12 12 13 14 15 15 15 16 16 17 17 17 17 18 19 20 20 21 22 22 21 20 20 23 22 15 12 11 8 11 13 13 12 10 7 7 6 5 8 9 6 6 5 4 0 1 1 1 1 2 2 3 3 7 7 6 5 7 8 7 4 2 4 2 3 6 3 2 4 7 5 9 10 5 9 14 13 13 13 14 12
13 13 13 12 12 12 11 11 11 12 13 14 14 15 16 16 17 17 17 17 17 18 19 20 21 21 22 20 19 19 17 11 7 4 0 7 13 13 13 11 8 7 7 7 7 7 8 8 7 5 3 1 3 2 2 3 3 2 4 6 7 4 4 7 8 9 6 3 3 2 1 4 5 2 3 3 5 10 12 12 11 13 14 12 11 8 9 10
16 16 15 15 14 14 13 13 13 13 13 14 13 14 15 16 17 17 17 17 17 17 18 19 20 21 22 20 18 16 9 4 4 2 3 9 12 12 11 9 8 7 7 8 8 9 8 7 6 5 3 1 1 1 3 5 4 2 5 8 5 5 4 7 6 6 4 3 3 2 2 5 2 2 5 7 8 13 8 7 12 14 13 11 9 6 5 7
20 20 19 19 18 18 17 16 16 15 14 15 15 14 14 15 17 17 17 17 17 17 18 18 19 21 21 20 15 9 2 2 3 3 2 8 11 10 9 9 8 7 8 8 8 9 6 5 4 2 2 1 4 4 5 3 3 3 6 6 5 6 6 5 2 4 5 5 5 4 4 2 1 5 5 9 16 18 9 7 10 11 10 9 5 4 5 8
23 23 23 22 22 21 21 20 19 18 17 16 17 15 14 15 16 17 17 17 17 17 17 17 19 20 20 18 10 3 1 6 9 5 4 7 9 10 9 9 8 8 8 8 9 7 4 5 3 4 4 0 4 6 4 1 2 3 6 5 5 6 8 6 1 3 5 6 8 3 2 2 4 6 2 9 19 20 14 6 7 8 5 4 4 6 8 9
24 25 24 24 24 24 23 22 22 21 20 18 18 16 14 14 14 15 17 17 17 17 17 17 18 18 20 15 5 3 2 10 15 10 8 9 10 10 10 9 8 9 8 9 10 7 5 6 5 4 3 3 4 5 3 2 1 6 8 5 3 3 7 7 4 5 4 7 5 0 6 8 8 3 5 18 22 16 13 9 10 8 4 5 8 9 8 9
27 27 27 26 26 26 25 25 24 24 23 21 21 18 16 14 13 14 15 17 17 17 16 16 17 17 17 10 4 3 5 8 12 10 10 12 11 10 10 9 9 9 8 8 9 9 6 5 6 5 4 4 5 4 3 3 3 7 8 4 4 6 7 5 6 7 6 6 2 4 12 9 5 2 10 24 24 14 10 12 11 9 9 11 11 11 9 10
23 25 28 29 29 28 27 26 26 26 25 24 23 21 19 15 13 13 14 15 16 16 15 14 16 15 14 7 3 3 5 2 5 9 11 12 11 11 11 9 9 11 8 6 8 10 6 6 6 4 4 3 4 4 3 5 4 4 4 5 7 10 9 4 7 7 4 5 6 8 13 5 2 2 10 16 9 4 7 10 8 7 11 13 11 11 9 10
20 21 23 26 29 30 30 29 28 27 27 26 26 24 21 18 15 14 13 14 14 14 14 13 14 14 10 5 3 5 3 2 2 7 10 11 11 11 11 10 10 11 9 5 8 11 6 6 7 5 2 2 4 2 3 5 1 1 1 7 8 9 10 6 9 7 3 4 7 9 9 2 3 3 16 16 1 5 4 6 6 6 10 11 10 10 8 9
21 21 21 21 23 26 29 31 30 29 28 27 27 26 24 21 17 14 14 14 14 13 14 12 13 11 6 1 6 12 8 2 3 5 8 10 10 10 9 9 9 10 10 5 6 10 6 6 9 5 3 3 3 1 4 3 1 1 2 6 9 7 9 8 6 5 6 4 6 7 6 4 7 13 23 17 3 1 3 7 7 8 9 8 8 8 7 9
21 21 22 22 22 22 23 26 28 31 31 29 28 27 26 24 19 16 14 13 13 13 12 11 11 9 3 2 7 12 15 12 10 9 10 11 11 10 8 7 7 7 9 6 5 8 7 7 9 5 2 4 1 2 1 2 2 2 2 1 7 7 8 5 0 2 7 4 5 6 6 7 12 20 23 12 4 4 6 10 9 8 8 7 7 7 8 9
21 22 22 22 23 23 23 23 24 26 29 31 31 29 28 26 22 17 14 14 13 13 13 12 11 6 1 7 10 10 17 19 16 16 15 14 12 8 7 6 4 4 5 5 5 6 7 6 6 2 0 2 2 1 2 4 2 2 1 1 2 3 6 5 1 5 6 2 3 5 5 11 10 14 17 9 5 6 7 12 10 8 8 7 8 8 9 9
22 23 22 22 23 23 24 24 24 23 24 27 30 32 30 27 24 19 16 15 12 13 14 12 9 3 0 10 14 12 14 14 16 21 20 17 14 8 6 6 4 4 4 4 7 7 7 6 5 3 1 1 1 1 3 4 3 1 2 4 1 3 6 8 2 8 5 1 1 4 4 13 12 8 9 3 5 7 8 12 10 10 9 8 8 7 9 9
23 24 24 23 23 23 23 24 25 25 24 24 27 30 30 29 25 19 16 16 15 14 12 7 4 3 2 6 6 5 7 8 11 16 19 19 16 9 7 7 5 6 7 6 8 8 7 5 2 3 2 1 3 2 1 4 4 2 3 6 4 4 4 7 3 4 2 2 2 4 3 9 9 3 2 3 6 6 7 11 11 11 10 9 8 7 9 9
24 25 25 25 25 24 23 23 24 25 25 24 24 26 29 28 23 18 18 18 16 13 9 3 2 4 5 5 3 4 5 8 9 9 16 19 16 12 10 7 4 6 8 6 6 6 3 2 1 0 2 2 3 4 1 4 7 3 2 4 5 5 4 5 5 2 1 2 4 5 5 13 15 8 4 1 5 5 7 13 14 13 12 10 8 8 9 8
25 26 26 26 26 26 25 24 23 24 26 26 24 23 24 23 19 18 16 10 3 3 5 3 3 3 5 6 5 5 2 3 5 5 12 15 13 13 10 5 4 6 6 4 2 3 1 1 2 0 1 1 3 5 5 10 8 4 4 3 5 5 5 8 7 2 4 2 4 5 6 17 22 17 13 6 6 7 12 15 14 14 14 12 9 10 10 9
25 26 26 26 27 27 27 26 24 24 24 25 24 21 18 15 14 12 6 5 6 3 3 5 6 3 3 4 5 4 0 1 3 5 10 11 11 11 7 5 6 6 4 1 2 3 2 2 3 2 3 6 9 11 15 13 2 5 7 4 5 5 5 8 6 4 5 2 6 10 10 16 22 21 17 8 6 9 14 13 12 12 13 11 9 10 10 12
24 26 26 26 27 28 28 27 27 25 23 24 23 16 9 6 6 3 2 5 6 6 4 7 11 6 5 3 2 2 2 3 3 4 10 13 12 9 4 3 5 4 3 4 3 2 3 3 4 7 11 14 14 13 15 9 4 1 4 3 5 6 8 6 3 3 3 3 8 11 11 14 20 23 19 9 6 9 13 14 14 13 13 11 10 12 11 13
25 26 27 28 27 28 29 28 28 26 23 21 16 7 3 2 3 2 1 6 12 12 10 10 14 13 9 6 4 4 2 3 2 4 12 14 13 9 2 2 4 2 4 5 2 1 3 6 10 13 14 11 9 10 11 9 6 5 5 6 7 6 9 7 1 3 1 3 7 9 9 13 19 22 17 10 7 12 15 15 16 15 13 10 9 13 12 10
27 27 28 28 28 29 29 28 28 25 21 17 10 5 3 4 7 6 3 6 11 15 16 13 12 14 13 15 13 5 1 4 3 4 13 14 10 7 4 4 6 4 4 4 2 1 3 9 14 14 8 2 3 6 9 10 9 8 5 6 8 4 6 6 2 2 0 3 5 7 8 13 18 22 19 14 13 16 16 13 14 14 12 10 10 10 10 8
27 28 29 27 29 31 29 30 28 21 17 13 10 7 7 10 10 8 3 5 8 11 14 12 12 13 12 17 17 10 7 9 7 8 15 16 7 6 5 6 7 4 5 7 7 5 7 9 11 11 7 5 5 4 6 7 6 7 6 5 8 4 3 5 3 2 1 4 4 6 9 11 15 20 20 15 13 13 12 9 10 10 11 12 9 7 8 9
26 28 29 28 30 30 30 31 22 16 19 16 15 15 15 14 9 6 2 3 8 7 11 14 12 10 11 11 12 14 10 9 7 7 16 17 6 4 5 6 7 5 5 11 12 11 13 8 4 7 10 10 10 5 7 5 5 7 9 9 9 7 8 8 4 3 3 4 3 5 11 10 10 15 16 7 5 7 6 7 9 9 9 10 7 7 8 8
28 29 29 30 30 30 33 27 14 17 25 17 14 18 18 14 6 4 2 2 8 4 6 10 7 7 10 8 11 13 5 7 7 5 14 18 10 5 4 4 5 7 8 10 10 11 15 7 6 7 7 9 9 6 7 7 6 7 9 12 13 11 10 8 4 5 4 5 3 2 7 9 5 9 11 5 4 6 3 5 10 9 8 7 7 9 8 7
30 30 31 31 30 33 29 14 11 23 22 10 9 14 13 12 6 3 1 2 8 3 3 6 5 9 12 8 8 9 3 4 6 8 15 18 12 5 3 3 1 6 8 7 5 5 7 4 7 8 7 8 8 7 7 9 6 8 5 10 14 12 9 8 3 1 2 5 3 3 1 9 5 5 8 6 8 11 6 7 11 10 8 7 8 8 7 7
31 32 34 32 31 33 21 9 18 22 10 7 13 15 13 12 9 5 1 4 8 2 5 4 4 7 9 7 9 9 3 2 2 5 12 14 10 2 4 6 2 3 5 4 4 3 1 3 7 9 7 7 8 6 7 10 7 6 2 5 9 9 9 8 6 5 4 3 3 2 3 7 11 6 6 5 7 12 10 9 11 9 9 9 9 9 8 8
32 33 34 32 33 32 18 11 18 15 11 16 20 17 12 10 8 4 2 5 6 3 5 2 1 3 4 6 8 5 1 3 4 3 4 8 8 2 6 10 5 5 5 5 7 3 4 4 8 10 7 7 7 4 9 13 7 4 2 4 5 6 5 4 5 5 1 3 4 3 6 5 12 6 2 1 4 10 11 11 12 9 9 9 9 9 9 7
33 34 32 32 35 32 22 14 14 15 18 21 21 17 8 6 4 0 4 7 3 2 3 3 3 2 5 4 5 1 2 1 2 2 3 4 6 2 4 6 5 5 4 6 9 5 2 4 7 8 6 7 4 1 8 13 7 3 6 6 6 5 4 4 3 3 3 3 6 6 7 5 12 7 4 2 4 9 10 10 10 8 7 8 8 9 8 6
34 34 32 32 33 32 28 23 18 14 16 18 17 12 3 3 2 3 9 6 1 1 1 2 2 3 7 6 3 2 1 1 1 2 3 2 3 1 1 2 5 3 4 5 9 6 1 2 2 4 5 6 4 3 3 7 6 6 6 5 6 4 4 3 1 4 2 7 6 9 13 9 9 5 7 4 5 7 8 6 6 7 7 7 8 8 8 7
33 34 34 31 30 28 21 19 19 16 16 16 10 5 4 1 1 6 9 2 4 2 1 4 3 4 7 6 2 3 4 1 2 4 3 3 3 2 1 1 2 1 2 5 8 8 3 0 2 2 4 5 6 4 1 2 5 6 4 4 3 3 3 3 3 3 3 8 4 5 10 11 10 7 4 3 4 3 6 6 7 8 8 7 7 7 7 7
33 35 36 31 29 24 12 13 21 19 17 11 5 4 2 2 4 8 6 4 3 2 2 2 3 2 1 3 2 4 3 1 4 6 4 4 6 7 8 8 6 3 3 6 6 5 6 7 5 2 2 5 6 3 3 2 2 3 4 5 3 2 2 3 2 2 5 7 2 1 1 6 12 11 6 11 12 8 8 7 8 9 9 7 7 7 7 6
35 36 35 31 25 18 14 18 20 15 10 6 5 1 2 5 5 8 6 3 5 2 3 1 1 2 0 4 4 2 0 1 4 3 1 3 5 7 8 9 8 4 3 5 3 3 4 5 6 4 3 5 10 8 4 3 5 7 7 6 5 3 4 7 4 1 5 5 1 1 2 3 7 6 9 18 19 13 10 9 8 7 7 6 6 6 6 7
36 34 32 29 18 12 18 22 15 8 5 7 4 1 5 7 5 6 7 6 5 6 5 4 5 1 3 3 3 2 1 4 5 4 2 3 4 5 6 9 11 5 2 3 2 4 4 5 6 9 3 7 13 12 7 5 6 9 7 5 6 7 5 7 5 3 6 4 3 3 3 3 3 2 8 13 11 7 6 9 8 7 5 3 2 4 6 7
36 32 29 24 13 13 22 22 12 5 5 6 1 2 8 6 4 5 5 2 3 6 7 8 6 4 4 3 3 2 4 4 3 5 3 4 6 5 4 8 11 7 3 3 3 4 6 7 6 6 2 9 14 7 3 7 4 5 2 2 5 6 4 4 3 4 1 3 4 3 4 5 4 7 11 7 6 6 6 6 6 7 6 4 3 5 6 7
36 32 25 16 13 20 25 21 12 5 8 4 1 4 6 5 4 4 4 4 3 6 10 9 3 2 4 2 3 3 4 3 3 3 2 5 6 4 3 4 10 12 8 6 3 3 5 6 2 4 1 6 8 3 4 4 3 3 3 5 4 2 4 4 4 2 4 4 6 3 6 7 3 9 12 10 10 8 6 6 7 8 6 6 7 7 7 7
32 28 19 10 16 25 24 18 8 5 5 2 4 5 4 4 6 6 6 6 4 4 8 7 4 2 4 3 3 4 3 2 3 3 2 4 4 5 5 4 8 14 13 9 4 3 5 5 2 5 2 2 2 1 2 1 2 5 5 6 2 2 2 2 3 2 1 6 6 3 8 8 2 6 7 7 12 11 8 8 8 7 5 7 9 8 7 7
25 21 12 6 18 25 19 12 3 6 3 0 5 6 4 3 4 4 6 7 5 6 6 4 4 3 3 3 4 5 6 5 3 2 2 3 4 6 7 4 5 14 20 16 7 3 4 5 2 2 3 1 2 2 1 2 2 5 4 3 2 2 2 2 3 4 3 6 6 3 5 5 6 7 4 3 10 13 11 8 8 9 9 9 9 8 7 6
17 11 3 6 21 23 14 6 4 5 1 1 4 5 3 3 4 4 6 6 5 7 6 3 4 4 5 6 6 6 5 4 4 3 2 2 4 4 5 5 4 9 17 17 7 3 1 3 2 1 1 1 2 2 6 4 0 1 1 1 1 1 3 3 3 3 4 5 5 5 4 4 6 8 7 9 12 14 11 8 10 12 12 11 9 8 7 7
11 4 2 10 23 22 12 3 3 2 1 2 2 3 3 4 3 4 6 5 4 3 3 5 7 5 7 8 7 5 4 3 4 3 3 3 5 5 3 3 5 4 5 7 6 3 3 3 3 1 1 1 2 4 8 9 7 4 3 3 3 1 1 1 1 1 3 4 4 4 7 8 5 4 10 15 15 12 10 9 10 11 11 11 9 8 8 8
6 1 4 15 24 22 11 2 1 1 1 1 2 3 5 6 3 4 4 3 2 2 2 3 5 4 5 7 7 7 6 6 5 2 3 2 3 2 4 11 10 7 3 1 4 4 2 3 3 1 0 3 4 3 3 7 9 9 8 8 9 7 4 3 5 2 2 2 4 2 8 11 5 3 8 11 9 7 6 8 9 8 9 10 8 8 8 8
3 1 9 17 24 21 9 2 2 2 0 3 3 3 5 6 5 5 5 3 2 1 1 3 4 4 4 5 8 10 9 7 7 4 2 3 3 2 8 20 18 11 5 2 6 6 3 0 3 3 4 5 4 3 1 1 2 3 5 6 6 7 7 7 7 3 2 2 2 3 5 9 3 1 4 6 3 2 4 7 5 6 7 7 7 7 6 7
1 4 12 16 21 16 5 3 3 3 1 4 3 4 4 3 4 6 5 5 4 3 3 2 3 5 6 6 7 9 10 6 5 7 7 8 8 5 12 21 19 14 9 4 3 4 4 3 4 6 4 2 3 3 2 4 2 2 5 4 4 7 8 5 3 2 2 5 5 3 6 10 5 1 2 5 5 3 3 6 4 4 4 5 6 6 5 6
2 4 6 14 20 12 4 3 4 3 3 5 3 4 4 2 4 7 6 5 6 4 3 3 4 4 4 5 4 5 7 4 4 8 8 9 10 7 12 18 15 10 6 5 6 5 4 2 5 6 3 2 2 3 2 3 0 3 4 4 5 7 5 1 1 1 2 7 10 7 9 10 5 3 4 5 6 5 3 4 5 4 4 4 4 4 4 5
4 2 3 9 15 10 5 3 3 2 4 6 5 5 6 3 4 6 5 3 5 5 4 4 4 4 5 6 4 3 4 2 3 6 5 7 10 8 10 16 13 8 7 9 10 7 4 3 4 4 4 6 4 3 3 2 2 2 3 5 7 8 8 4 3 4 6 10 10 8 11 10 5 6 6 6 6 7 5 3 4 5 5 4 3 3 4 5
2 2 2 6 8 6 3 3 4 2 4 5 5 5 5 4 5 6 4 2 5 8 5 4 4 6 8 10 8 6 3 1 2 5 6 8 8 6 11 15 11 8 10 13 12 6 3 3 5 7 8 7 6 4 2 3 4 4 7 9 10 11 13 10 6 7 11 12 9 9 13 15 10 5 8 8 7 7 5 4 4 5 6 5 3 3 3 4
1 1 1 3 3 3 4 4 5 3 2 4 4 4 4 5 5 5 3 3 6 9 5 2 5 9 9 10 9 6 7 7 5 5 8 8 6 9 14 13 8 7 10 11 7 5 3 6 8 11 13 11 11 11 8 2 3 6 8 9 11 11 13 13 12 14 15 10 11 14 14 18 18 9 8 12 11 8 7 6 5 5 5 4 2 2 4 6
1 1 1 0 1 2 3 4 4 2 2 4 3 2 4 6 5 4 3 3 5 7 4 2 7 10 8 8 6 6 9 11 7 5 7 8 10 13 14 12 8 4 10 10 5 3 2 6 9 11 14 13 13 15 16 11 7 8 8 10 12 11 13 15 16 20 16 10 15 15 9 13 17 9 10 14 11 8 10 9 6 5 4 3 2 4 6 7
1 1 2 2 1 2 3 5 5 3 3 4 3 2 3 4 4 4 3 3 6 5 3 5 8 10 9 8 6 6 8 8 7 5 8 12 13 11 11 12 7 2 8 10 6 1 2 5 9 10 12 15 14 15 18 16 11 11 11 12 13 12 15 17 18 21 19 15 19 16 9 12 10 3 7 10 6 8 9 9 10 9 9 8 7 7 8 9
1 1 1 2 1 3 3 3 3 4 4 3 2 3 3 2 5 6 4 3 5 4 3 6 9 9 9 8 6 7 8 8 9 9 10 13 12 8 7 7 6 7 10 8 5 3 3 5 10 9 9 13 14 14 18 17 13 14 15 15 12 9 11 15 17 18 17 16 19 17 17 18 7 1 6 10 8 11 14 14 16 17 17 15 12 10 10 11
1 1 1 0 2 3 3 1 1 3 3 1 1 3 2 4 6 7 5 4 5 4 5 8 9 8 7 8 8 10 9 8 11 12 10 10 11 9 8 7 8 13 12 7 4 3 3 5 8 7 7 10 12 13 17 16 13 14 15 15 13 10 11 13 13 13 13 14 15 14 16 16 6 4 6 9 10 14 16 17 17 18 20 19 14 12 12 13
2 1 1 1 2 2 2 1 2 2 2 2 1 3 4 5 6 6 5 3 2 5 6 7 8 7 6 9 10 9 7 8 12 14 11 10 12 13 12 13 15 13 10 8 6 4 4 4 5 6 6 8 12 13 12 10 8 8 10 16 20 19 17 13 10 11 12 11 11 11 12 12 6 2 6 9 10 13 15 16 15 17 20 19 14 12 13 14
Wind_Direction
322 325 327 328 325 323 321 320 321 321 324 324 324 323 323 326 327 329 328 330 331 332 333 331 330 330 330 330 329 329 325 317 312 307 274 269 272 232 223 213 192 208 224 233 222 184 150 151 186 109 109 114 35 162 92 40 111 96 118 169 231 196 205 191 191 199 186 256 243 236 206 177 237 264 207 330 257 249 259 256 253 266 262 238 242 233 196 189
314 315 318 323 326 327 325 322 324 323 323 323 324 322 323 325 325 327 327 328 330 331 333 332 332 330 330 329 328 331 324 317 310 290 274 276 256 214 211 208 205 216 213 216 217 186 161 177 192 90 76 107 344 42 94 337 139 148 138 182 233 201 212 198 184 199 201 219 219 254 224 187 217 208 107 263 255 278 275 259 230 255 265 259 256 245 234 230
302 307 309 312 315 322 326 327 328 328 328 326 324 323 323 325 326 326 325 327 329 330 332 333 333 331 331 328 329 330 323 320 309 279 279 257 202 195 197 199 207 213 208 200 193 181 169 162 148 105 68 86 298 78 110 173 181 186 144 220 243 213 230 233 200 209 219 205 210 267 217 193 234 212 131 233 263 271 250 249 210 234 255 255 255 246 239 236
294 297 301 304 308 311 314 320 324 326 330 329 328 328 325 325 327 326 325 326 327 330 331 332 334 333 330 329 329 325 324 322 293 269 131 160 171 179 189 196 204 208 202 180 162 153 145 128 112 92 94 195 314 31 176 213 196 170 164 218 237 189 237 242 209 214 227 210 197 214 143 263 250 195 198 195 275 266 239 236 219 227 245 247 256 250 231 228
295 294 297 300 306 310 312 317 318 321 324 325 329 330 328 328 328 326 326 325 326 328 330 332 334 334 331 330 330 326 337 335 293 0 117 156 163 177 191 197 201 204 189 171 156 136 128 111 82 63 84 180 306 62 224 216 153 170 221 235 222 159 239 248 205 208 196 159 181 164 227 254 220 189 221 187 227 254 233 206 211 223 236 238 247 238 198 208
296 296 299 300 304 309 314 318 319 320 319 321 329 330 329 330 329 327 327 325 327 327 328 332 333 335 332 330 329 329 10 255 302 29 145 159 164 182 191 198 199 197 186 168 149 134 121 92 82 110 103 179 189 196 236 219 136 218 249 260 237 189 231 258 167 196 162 155 196 190 228 199 76 271 231 197 225 245 236 171 194 219 225 226 225 200 193 204
296 296 297 298 301 304 309 313 314 317 317 319 326 327 325 328 331 330 329 327 327 328 329 331 333 336 334 334 333 339 102 252 274 288 229 182 182 194 194 201 195 193 187 161 143 136 117 106 151 163 119 264 212 212 231 176 111 238 254 274 260 205 226 255 292 217 176 199 215 174 287 205 212 265 291 232 238 245 249 219 210 227 216 209 208 207 214 212
294 295 295 295 296 299 303 306 308 311 312 314 319 322 322 324 329 332 334 331 330 331 330 330 335 339 336 343 3 337 295 249 262 259 227 210 206 202 201 201 192 196 188 178 168 154 137 140 183 165 138 238 195 187 192 129 130 225 236 260 268 219 236 262 285 260 222 228 233 349 269 233 212 251 305 262 254 248 245 247 239 236 237 226 228 227 221 222
293 291 292 293 294 295 296 300 303 304 306 308 311 316 318 318 323 329 335 334 334 332 330 332 334 337 336 346 64 323 272 240 256 242 219 217 212 204 205 204 199 200 188 196 188 164 163 179 200 188 188 213 172 181 180 172 234 221 227 265 281 276 271 267 265 250 237 238 183 229 255 249 224 275 280 260 260 260 231 237 241 226 239 238 237 235 221 226
304 296 292 290 290 291 292 295 297 299 302 303 305 308 311 312 312 319 328 332 335 332 330 333 329 334 339 354 95 271 267 249 257 226 216 214 209 208 209 211 209 205 190 187 183 169 176 197 189 162 154 160 172 188 168 178 213 195 219 278 262 273 282 251 257 252 235 246 179 216 255 260 178 202 263 257 257 259 198 228 242 207 235 239 236 238 225 228
322 315 306 297 292 289 288 290 293 295 297 298 301 301 303 304 304 311 321 326 332 332 331 328 323 332 346 21 139 231 264 32 248 204 211 213 211 217 216 217 215 209 197 178 192 191 195 191 157 119 159 180 166 180 225 203 190 132 260 295 268 279 285 236 253 258 203 253 193 203 260 275 106 197 244 248 171 86 156 228 245 210 236 240 237 240 228 231
331 327 322 315 306 298 291 288 288 289 292 294 296 296 297 297 297 301 308 318 322 325 327 320 317 330 347 355 226 240 249 274 257 212 213 218 215 219 221 221 218 216 207 195 213 206 207 190 157 157 216 165 147 198 247 206 69 340 47 309 288 316 294 234 242 238 168 228 184 169 275 248 187 223 239 243 221 7 267 256 248 229 239 240 238 241 231 234
334 331 328 325 321 315 306 297 290 287 287 289 290 292 293 292 292 293 298 306 310 316 318 308 309 322 336 247 238 246 257 264 265 247 227 224 221 219 219 218 219 221 219 221 220 192 188 186 166 183 184 124 185 204 147 69 64 284 79 306 298 332 300 250 154 136 156 207 171 151 285 251 202 226 244 250 220 236 264 260 252 242 245 242 238 239 237 237
335 334 332 329 325 322 318 311 302 293 287 285 287 288 288 288 287 286 288 291 299 309 301 296 302 312 170 248 260 269 273 270 257 241 229 222 213 203 205 209 214 211 214 213 184 160 168 166 139 142 116 116 242 252 6 3 23 280 271 207 313 311 281 291 111 148 157 196 161 145 269 267 235 231 248 254 205 201 243 259 258 251 248 245 241 238 243 238
343 341 337 332 328 324 322 318 312 304 294 287 285 286 285 284 282 282 284 284 292 295 288 290 289 275 337 276 274 275 269 260 244 235 229 219 203 192 197 186 169 149 147 157 149 142 149 140 119 128 272 326 52 1 314 334 1 26 256 267 293 207 265 303 225 162 164 116 137 156 232 273 273 254 257 254 163 179 235 259 264 260 255 249 246 238 244 245
348 347 344 340 334 329 325 322 319 312 305 295 288 286 282 281 281 279 278 279 282 279 277 288 254 196 269 284 285 274 244 231 241 239 226 217 212 201 175 153 131 118 122 123 130 134 127 113 112 144 145 44 95 122 332 338 315 317 214 246 254 216 274 319 272 187 187 104 173 215 237 278 280 267 311 68 132 164 230 261 264 262 261 252 248 241 243 250
351 349 347 346 342 337 331 325 322 318 312 304 297 291 281 278 277 273 276 280 278 263 245 247 194 185 250 266 282 273 237 223 240 238 214 212 216 199 163 131 110 109 106 100 120 125 94 89 92 126 89 62 127 135 43 269 261 269 184 242 254 231 250 295 291 269 123 116 225 232 236 260 264 260 276 96 139 168 240 261 265 264 264 255 249 246 243 244
351 349 348 347 345 343 339 332 325 320 318 310 304 295 280 273 272 274 277 269 248 214 216 222 191 212 257 255 262 259 230 224 227 210 200 198 201 191 165 128 123 115 91 60 131 141 10 30 94 154 52 55 167 151 201 233 232 202 173 222 253 244 239 253 270 232 142 137 248 237 236 257 267 269 266 244 188 223 252 259 264 265 264 260 252 248 244 241
347 346 347 346 345 343 340 337 330 322 320 315 310 301 281 271 277 277 253 174 133 135 208 196 185 210 273 245 257 266 116 146 175 173 180 175 175 172 144 116 112 109 109 66 234 171 138 55 88 161 196 210 207 188 209 229 211 168 182 189 225 245 252 242 253 230 168 152 246 240 241 257 270 273 272 259 201 233 255 258 263 263 264 264 256 252 248 245
344 344 345 344 343 342 338 336 333 326 321 318 316 308 283 273 288 280 180 195 217 221 214 183 192 230 283 268 246 234 213 175 174 174 172 167 158 146 105 78 82 82 157 157 197 185 134 175 198 206 215 218 214 203 219 249 4 139 205 232 237 247 269 261 264 263 180 170 245 242 245 258 267 271 275 269 214 234 252 256 260 259 260 260 254 255 249 246
342 344 345 344 342 339 335 333 332 328 321 316 312 291 232 202 245 283 252 236 232 229 244 217 202 228 251 251 213 167 196 204 183 173 175 169 151 149 184 150 131 202 193 150 149 98 124 209 220 220 223 220 207 204 223 252 281 264 255 270 262 243 264 268 246 272 190 184 257 263 266 266 267 272 277 271 239 246 251 251 256 257 258 258 252 254 252 252
341 343 344 342 342 339 334 330 330 327 318 307 287 242 237 240 247 279 292 260 242 221 238 239 222 241 243 247 243 188 199 243 227 208 175 166 162 178 203 159 170 204 167 135 128 134 217 234 229 222 216 167 169 193 208 227 239 244 248 269 267 251 277 288 313 330 162 196 265 291 284 270 271 275 275 267 254 256 255 245 247 252 255 254 246 248 254 258
339 341 342 342 342 338 332 329 329 331 328 307 263 234 263 269 268 284 280 285 270 213 220 231 225 239 235 245 242 205 234 235 223 229 175 162 177 186 177 173 189 188 150 171 181 187 227 240 232 215 181 182 226 183 171 216 238 230 226 247 255 245 271 278 298 337 226 229 275 306 290 271 273 277 273 263 251 258 263 246 242 245 245 248 247 245 245 247
339 339 340 341 343 339 332 328 328 340 343 320 270 254 264 269 276 304 305 281 275 216 204 213 211 225 221 224 203 185 226 223 203 224 174 165 163 152 178 177 179 195 187 193 194 213 234 232 191 178 174 196 218 174 152 200 242 227 217 225 243 243 231 241 284 333 294 287 307 315 295 273 248 259 268 275 266 267 263 243 247 245 238 247 260 254 236 235
338 338 338 340 342 340 333 327 333 342 337 323 277 270 268 260 273 338 12 284 273 249 199 211 215 226 200 165 157 165 204 220 208 206 173 175 166 142 194 168 175 213 198 191 201 235 247 229 116 142 182 195 203 198 176 183 232 251 222 212 229 241 239 246 306 354 330 304 313 8 299 279 218 229 259 286 287 271 233 228 251 247 236 237 248 249 235 230
336 335 337 338 338 342 341 331 334 333 327 314 292 300 286 262 268 303 40 290 269 267 129 192 192 191 175 146 150 142 119 236 215 183 176 186 183 152 189 165 185 218 177 166 204 246 259 212 152 166 178 182 199 227 199 177 223 268 236 204 219 231 240 248 251 277 266 263 280 70 298 282 266 215 249 266 271 273 262 249 253 247 242 231 229 238 229 223
334 333 336 337 337 343 344 315 321 328 318 304 313 320 303 261 252 266 268 279 264 191 123 194 185 162 159 160 163 141 155 221 128 179 180 186 195 174 214 197 154 206 161 135 225 234 119 155 184 178 165 176 201 231 198 173 201 256 249 185 200 209 225 230 213 217 239 269 294 87 112 285 282 244 236 247 259 273 272 263 255 239 232 229 226 230 221 214
332 333 335 335 335 337 333 306 313 313 286 300 314 316 299 251 237 261 243 252 266 107 121 194 161 103 99 149 165 137 188 147 107 210 167 167 196 186 228 217 170 184 182 170 220 231 103 150 190 180 178 199 208 220 179 168 194 245 140 122 149 170 195 185 182 209 286 353 273 187 128 266 277 260 221 222 236 260 262 256 253 233 219 223 221 222 220 214
332 333 335 335 333 333 334 314 297 297 296 303 309 305 287 221 208 247 244 244 265 87 132 134 132 104 63 123 184 56 18 103 143 212 89 147 202 153 217 213 147 174 212 207 231 255 105 177 187 164 175 209 207 203 175 175 199 200 128 98 81 83 80 92 139 146 68 305 240 185 153 228 275 255 167 157 227 245 250 250 253 237 219 223 219 217 215 209
333 331 333 335 332 332 332 315 301 312 319 316 304 287 222 167 174 207 237 244 341 268 212 71 116 134 110 131 210 258 166 231 110 104 76 148 188 89 174 157 117 169 240 258 256 254 151 113 178 166 178 188 142 89 173 179 168 136 116 76 58 43 44 61 40 89 85 267 228 181 179 196 273 258 159 178 216 217 228 238 254 245 228 226 218 211 205 200
333 330 331 334 331 328 323 309 314 324 324 321 296 233 139 134 237 216 229 282 2 281 64 39 42 112 140 147 192 203 178 221 163 148 160 167 149 129 132 140 97 104 239 258 261 248 232 187 224 214 175 143 104 86 50 128 143 124 105 95 80 348 11 25 353 70 213 258 236 193 188 187 236 245 173 248 272 216 210 201 201 210 212 215 212 205 197 191
333 329 329 332 330 326 314 310 321 318 313 307 241 176 133 222 228 228 247 0 339 251 88 33 41 87 261 338 330 200 165 227 193 171 165 161 170 182 194 195 164 121 232 230 237 237 238 228 200 180 194 155 131 110 53 49 172 135 115 126 137 301 330 304 291 143 228 261 269 257 211 201 239 254 264 277 277 252 225 212 202 199 196 202 207 202 187 175
333 330 328 331 334 334 336 334 328 318 303 253 201 162 245 226 224 230 239 264 270 301 79 147 124 122 199 344 315 239 320 274 180 180 211 158 185 210 220 219 190 172 207 198 201 216 249 250 172 161 257 184 168 182 192 191 188 179 162 153 170 197 245 251 241 228 260 270 309 255 221 245 269 272 245 250 258 249 227 226 231 220 204 200 203 194 179 175
333 332 330 331 338 350 350 346 335 312 266 202 177 6 236 237 249 243 240 244 283 341 26 29 9 339 180 213 251 160 243 261 167 165 235 152 188 221 225 233 221 208 137 141 194 194 220 277 187 172 197 181 188 206 197 148 168 196 181 158 192 190 205 234 214 230 262 280 307 265 211 207 221 257 238 240 260 271 235 223 223 234 231 198 181 176 177 186
334 335 333 333 346 358 351 348 339 295 202 170 139 232 229 246 272 270 280 306 340 344 342 351 355 304 270 253 257 181 196 244 165 157 192 184 203 218 209 220 213 201 140 170 222 183 207 261 212 169 136 166 186 209 137 113 162 215 154 139 222 197 184 240 216 170 189 312 291 232 229 222 210 280 284 264 269 274 251 233 213 229 227 185 204 202 192 197
336 338 338 339 356 357 351 350 339 240 180 146 154 228 237 258 279 292 335 1 338 336 335 327 310 282 299 291 286 255 209 221 173 157 214 217 220 232 244 231 202 195 188 190 214 178 207 259 175 130 65 166 180 189 135 148 188 173 157 196 223 143 150 225 258 87 79 275 264 198 244 276 308 283 268 242 244 248 233 229 221 223 207 190 218 217 207 205
338 337 332 335 358 355 352 354 349 189 164 130 201 235 262 267 280 299 342 350 310 339 353 324 307 322 299 295 312 303 312 295 208 176 217 225 228 217 219 246 202 197 206 213 230 203 208 249 186 157 191 199 188 107 99 340 114 134 186 207 148 69 109 162 247 324 47 254 265 216 239 263 281 265 262 239 244 243 225 221 221 222 204 204 224 219 210 206
336 331 318 335 1 356 351 355 45 143 116 94 228 258 277 284 303 328 345 341 325 344 351 311 311 328 303 315 317 312 333 321 259 235 239 235 246 203 191 233 212 199 212 220 238 262 217 232 242 156 164 155 66 102 157 331 82 140 205 220 121 171 209 140 183 229 231 245 270 263 251 254 219 233 280 265 239 240 235 217 207 214 210 212 225 219 208 198
342 335 306 354 359 356 352 358 99 125 109 210 244 263 267 315 1 25 346 341 356 345 336 330 337 323 310 325 321 314 322 303 281 292 289 256 269 237 196 246 257 217 218 215 219 300 295 236 257 40 164 140 62 177 196 194 126 82 257 287 21 173 198 183 171 193 207 226 259 276 295 270 216 211 219 218 223 227 219 198 204 213 208 209 215 204 195 194
352 346 254 340 352 353 354 10 110 101 223 223 264 284 323 346 12 13 346 8 20 328 316 342 339 328 316 324 330 325 314 298 297 289 272 289 304 303 298 311 323 309 249 221 232 297 347 273 247 65 5 210 189 219 196 177 178 186 183 196 206 187 160 230 222 147 160 191 232 268 278 265 236 192 202 214 227 225 198 186 206 213 207 210 214 201 192 194
352 24 293 339 352 352 356 38 92 25 232 301 339 317 332 338 349 358 356 32 12 255 204 307 307 304 306 323 344 346 337 314 301 272 242 297 326 305 16 18 356 333 2 19 269 279 331 289 256 141 171 227 231 261 212 187 188 187 189 196 197 192 173 207 234 206 130 194 192 201 272 269 253 215 218 223 239 245 218 202 200 204 208 209 212 208 196 193
21 345 300 335 352 350 359 84 34 20 64 347 336 292 317 333 345 355 352 357 343 296 247 264 286 317 324 344 351 349 349 316 293 303 278 298 316 282 13 16 3 337 327 255 240 228 184 257 282 238 219 225 251 305 356 230 229 207 212 205 194 199 194 203 226 206 129 232 189 128 268 271 268 231 259 265 280 303 263 242 210 201 207 204 210 209 202 207
37 298 301 337 351 348 11 86 31 35 8 334 317 289 312 335 349 351 344 346 354 346 325 308 349 3 11 11 349 344 350 320 304 350 343 332 338 350 10 9 2 349 335 304 277 251 198 173 229 241 250 277 304 317 8 29 24 255 246 213 183 217 218 210 232 207 160 208 196 167 242 259 280 348 331 304 314 6 327 290 270 233 213 203 213 208 204 216
309 280 292 341 351 357 59 66 12 18 341 333 329 322 326 345 8 353 337 346 0 350 331 340 4 16 13 359 333 343 0 343 333 355 347 330 325 340 7 2 356 354 340 327 331 307 281 242 218 220 235 271 331 331 330 349 229 228 256 231 209 226 223 136 338 274 247 216 200 202 238 251 283 341 8 353 338 346 335 302 297 271 244 218 214 216 212 211
317 291 253 331 356 23 83 66 26 10 342 340 336 343 348 352 356 338 320 347 15 4 340 327 342 358 357 354 331 335 38 75 331 328 326 321 316 323 353 350 345 338 321 328 334 313 292 281 246 232 233 235 241 235 231 239 198 210 257 239 219 205 190 189 221 228 242 233 211 208 242 258 306 351 348 352 347 341 336 322 306 277 262 246 209 210 215 208
347 349 291 326 3 40 61 55 56 23 348 354 343 346 0 350 330 329 333 19 14 4 346 315 353 14 2 359 351 334 357 60 286 290 300 315 317 319 331 332 322 311 326 345 350 337 298 274 268 263 258 259 270 265 213 115 135 203 226 226 222 206 198 204 210 217 233 242 238 226 240 258 272 309 328 325 327 326 318 309 304 291 284 277 241 215 214 215
48 309 325 333 344 21 21 26 38 12 333 350 334 321 337 332 317 331 4 29 1 355 335 307 31 29 3 352 349 327 322 325 300 273 290 305 314 311 315 314 292 300 342 353 1 5 321 295 292 275 265 266 273 274 267 212 190 228 230 228 229 219 210 211 215 226 230 236 251 240 229 249 257 254 286 294 296 302 303 294 282 272 268 269 254 216 224 226
40 234 221 313 308 4 5 339 348 8 335 321 308 289 314 324 336 353 12 18 357 350 334 346 21 16 353 343 338 313 321 326 314 303 315 325 331 325 322 317 294 318 356 347 352 39 296 287 295 285 275 269 262 266 266 257 246 247 243 240 235 220 213 217 225 236 233 229 252 248 209 231 253 252 248 260 277 310 318 314 305 292 288 287 244 220 234 237
33 268 297 354 341 271 287 298 314 356 350 319 316 319 295 309 345 1 9 1 340 334 350 358 357 352 342 340 336 317 320 318 306 330 347 336 330 330 325 318 303 338 1 339 323 264 215 281 296 290 285 275 261 258 261 259 254 251 246 243 239 224 215 218 227 239 242 241 254 265 255 244 254 275 260 261 288 312 307 308 308 302 293 283 255 233 238 238
103 147 304 341 305 265 272 298 326 347 342 319 299 281 268 323 359 1 0 332 306 312 3 353 341 337 330 329 323 300 299 309 311 325 341 331 323 322 313 302 293 309 323 323 307 260 223 284 297 299 294 280 267 256 256 256 250 248 249 246 243 235 225 226 230 237 243 248 256 268 276 270 262 149 277 283 293 292 290 289 289 286 280 275 260 239 235 235
189 161 154 323 297 275 269 291 21 357 331 304 241 265 300 354 357 344 322 257 247 292 350 341 327 323 314 307 297 289 295 317 314 307 305 298 287 285 287 274 281 301 307 301 291 281 266 282 293 295 290 284 278 265 260 261 252 246 250 249 240 231 228 229 229 229 230 240 253 258 263 268 259 174 242 258 251 258 264 262 262 266 268 266 252 235 235 237
191 192 138 158 279 255 245 305 46 49 293 246 261 336 337 329 330 333 317 271 271 323 331 322 310 308 305 294 287 287 300 309 299 292 286 274 263 264 264 259 263 273 281 289 296 274 258 280 294 288 284 285 284 277 274 275 260 242 238 236 232 229 231 234 234 234 227 223 240 250 252 266 281 218 235 243 236 241 244 241 243 252 260 260 245 232 241 245